Location: Roc des P�zouls
(43.9667°N, 3.5500°E)
Time: 12:30:59
(UTC+00:00)

USA 116 - Pass Details

Date: 14 November 2019
Orbit: 405 x 834 km, 97.9° (Epoch: 18 November)

Event Time Altitude Azimuth Distance (km) Brightness Sun altitude
Rises 05:01:58 0° 157° (SSE) 2,321 7.4 -17.5°
Reaches altitude 10° 05:03:54 10° 154° (SSE) 1,479 6.4 -17.1°
Maximum altitude 05:06:58 59° 74° (ENE) 503 3.8 -16.6°
Drops below altitude 10° 05:10:17 10° 354° (N) 1,594 5.9 -16.0°
Enters shadow 05:12:00 - 351° (N) 2,338 6.7 -15.7°
